Location: Bastrop State Park
(30.1090°N, 97.2819°W)
Time: 22:02:44
(UTC-06:00)

Daily predictions for brighter satellites

Satellite Brightness Start Highest point End
(mag) Time Altitude Azimuth Time Altitude Azimuth Time Altitude Azimuth
CZ-4C R/B 4.5 17:50:43 10° NNE 17:53:28 12° NE 17:56:18 10° ENE
Cosmos 1354 Rocket 4.2 17:48:25 10° S 17:53:32 52° ESE 17:58:39 10° NNE
COSMO-SKYMED 1 3.3 17:55:03 10° NNE 17:58:58 33° E 18:02:53 10° SSE
CSL-04 Debris 4.1 17:54:27 10° SSE 17:59:52 76° ENE 18:05:16 10° N
COSMOS 2406 4.3 17:55:27 10° NNW 18:00:58 51° WSW 18:06:25 10° S
Tiangong 1 0.9 18:04:49 10° SW 18:07:21 52° SE 18:09:27 14° ENE
Cosmos 2221 Rocket 3.7 18:09:16 10° S 18:13:34 55° E 18:17:52 10° NNE
Cosmos 1703 Rocket 3.7 18:09:23 10° S 18:13:52 84° W 18:18:20 10° N
Cosmos 1833 Rocket 3.4 18:09:17 10° N 18:14:13 31° ENE 18:19:09 10° SE
Cosmos 2297 3.7 18:09:29 10° SSW 18:15:11 89° ESE 18:20:57 10° NNE
OAO 3 Rocket 3.2 18:12:34 10° WSW 18:17:29 88° SSE 18:21:32 15° ENE
Cosmos 2034 Rocket 4.4 18:12:31 10° SSE 18:18:27 43° E 18:24:23 10° NNE
Cosmos 2278 Rocket 3.9 18:13:48 10° SW 18:18:46 31° WNW 18:23:47 10° N
CORIOLIS 4.2 18:13:29 10° SSE 18:18:56 87° ENE 18:24:23 10° NNW
Meteor 1-14 Rocket 4.4 18:15:21 10° N 18:20:57 77° W 18:26:28 10° S
Chunghua 1 4.5 18:17:50 10° WNW 18:21:32 65° NNE 18:24:18 16° E
SKYMED 3 4.5 18:24:39 10° NNE 18:29:01 82° ESE 18:33:20 10° S
IRS-1A Rocket 4.3 18:23:54 10° SSE 18:29:45 85° ENE 18:35:30 10° NNW
ISS -1.9 18:30:02 10° SSE 18:32:06 16° SE 18:32:19 16° ESE
Cosmos 1606 3.7 18:28:51 10° SSW 18:32:31 48° W 18:36:10 10° N
Cosmos 1441 Rocket 3.4 18:29:13 10° S 18:33:03 51° E 18:36:53 10° NNE
Cosmos 1763 Rocket 4.4 18:28:07 10° NNW 18:33:07 52° WSW 18:38:02 10° S
GPS 2-05 Rocket1 3.3 18:30:45 10° W 18:33:47 43° NNW 18:35:12 26° NE
BREEZE-M R/B 3.8 18:32:05 10° NNW 18:35:01 30° NE 18:37:04 22° E
Cosmos 44 Rocket 4.4 18:32:42 10° N 18:36:40 24° NE 18:37:32 23° ENE
Okean 2 Rocket 3.3 18:32:47 10° N 18:37:08 46° E 18:41:27 10° SSE
Meteor 1-11 Rocket 4.3 18:32:50 10° NNE 18:38:04 34° ENE 18:43:11 10° SE
Thor Agena Rocket 4.3 18:36:31 20° NE 18:39:01 29° E 18:43:28 10° SSE
Cosmos 405 3.6 18:38:10 10° NNE 18:41:27 33° E 18:44:41 10° SE
CZ-4 R/B 2.5 18:38:12 10° S 18:41:55 44° W 18:45:36 10° NNW
Cosmos 292 Rocket 4.2 18:39:41 10° N 18:44:04 36° ENE 18:48:26 10° SE
OAO 3 Copernicus 4.3 18:39:57 10° WNW 18:45:00 66° NNE 18:47:36 28° E
MONITOR-E 3.9 18:42:10 10° SSE 18:45:11 72° ENE 18:48:13 10° N
Cosmos 1464 Rocket 4.1 18:39:45 10° S 18:45:51 76° W 18:52:00 10° N
SKYMED 2 4.1 18:42:45 10° N 18:47:01 59° WNW 18:51:16 10° SSW
SL-27 R/B 3.3 18:44:37 10° NNW 18:47:52 49° WSW 18:51:09 10° S
EO 1 Del DPAF 4.1 18:45:43 10° N 18:49:25 50° WNW 18:53:06 10° SSW
Cosmos 1674 Rocket 4.4 18:46:05 10° SSE 18:49:18 28° ESE 18:49:18 28° ESE
MOS 1 4.2 18:45:04 10° SSE 18:50:45 83° ENE 18:56:29 10° NNW
METEOR-M 4.2 18:47:06 10° S 18:52:25 80° WSW 18:57:46 10° NNW
Cosmos 968 Rocket 3.4 18:50:09 10° SSW 18:55:17 83° ESE 18:59:38 15° NNE
Cosmos 540 Rocket 3.4 18:51:26 10° NNW 18:56:38 88° ENE 19:01:46 10° SSE
ERS-2 2.8 18:54:33 10° S 18:58:09 55° WSW 19:01:46 10° NNW
Cosmos 44 3.5 18:55:55 10° NNW 19:00:31 45° ENE 19:01:17 41° E
USA 234 3.7 18:58:41 15° NNE 19:04:01 56° NW 19:10:21 10° WSW
Cosmos 2082 Rocket 2.1 18:59:04 10° NNW 19:04:45 89° ENE 19:10:23 10° SSE
Cosmos 1602 3.6 19:02:29 10° N 19:06:20 85° W 19:10:11 10° S
ALOS 2.2 19:02:46 10° SSE 19:07:26 90° SSW 19:12:07 10° NNW
Cosmos 405 Rocket 4.2 19:04:02 10° SSW 19:07:33 35° W 19:11:02 10° NNW
Meteor 2-20 Rocket 4.3 19:07:25 10° N 19:13:26 63° E 19:19:26 10° SSE
IUS-9 SRM-1 4.4 18:47:49 10° W 19:17:09 65° SSW 19:20:05 33° SE
FengYun 1-2 T 4.2 19:16:23 10° SSE 19:22:03 57° ENE 19:27:11 10° N
NOSS 3-1 (C) 3.9 19:23:01 10° S 19:26:54 37° SSE 19:26:54 37° SSE
SEDSat Delta rocket 4.2 19:25:13 10° SW 19:27:53 29° S 19:27:53 29° S
FENGYUN 3A 4.4 19:29:56 10° S 19:35:11 51° W 19:40:27 10° NNW
CZ-4C R/B 2.9 19:35:54 10° NNW 19:43:19 62° ENE 19:43:23 62° ENE
Delta 168 4.2 19:43:31 10° WSW 19:48:50 58° S 19:49:02 58° SSE
USA 229 DEB 4.1 19:43:49 10° SW 19:50:23 56° WNW 19:52:44 38° N
USA 229 4.1 19:43:55 10° SW 19:50:29 56° WNW 19:52:47 39° N
Cosmos 2369 Rocket 2.5 19:48:30 10° SSW 19:53:18 64° SW 19:53:18 64° SW
Cosmos 1634 Rocket 4.1 19:53:16 10° SSW 19:59:22 68° W 19:59:54 65° NW
Cosmos 1943 Rocket 4.1 20:16:36 10° SSW 20:18:16 20° SSW 20:18:16 20° SSW
